Location: Berbisdorf
(50.7638°N, 12.9442°E)
Time: 04:04:49
(UTC+00:00)

GEOS 3 Rocket - Pass Details

Date: 07 October 2020
Orbit: 770 x 849 km, 115.0° (Epoch: 21 October)

Event Time Altitude Azimuth Distance (km) Brightness Sun altitude
Rises 17:08:49 0° 183° (S) 3,336 6.9 -6.6°
Reaches altitude 10° 17:11:44 10° 200° (SSW) 2,423 6.4 -7.1°
Maximum altitude 17:15:29 20° 246° (WSW) 1,862 6.5 -7.6°
Drops below altitude 10° 17:19:18 10° 291° (WNW) 2,464 7.4 -8.2°
Sets 17:22:19 0° 309° (NW) 3,413 7.8 -8.7°
